Location: Bukovany
(49.8234°N, 14.6297°E)
Time: 17:56:23
(UTC+00:00)

Cosmos 1862 - Pass Details

Date: 17 November 2025
Orbit: 473 x 485 km, 82.5° (Epoch: 09 December)

Event Time Altitude Azimuth Distance (km) Brightness Sun altitude
Rises 16:41:41 0° 356° (N) 2,542 6.6 -13.8°
Reaches altitude 10° 16:43:53 10° 5° (N) 1,660 5.6 -14.1°
Maximum altitude 16:47:17 37° 74° (ENE) 767 3.5 -14.6°
Drops below altitude 10° 16:50:40 10° 143° (SE) 1,655 5.5 -15.2°
Sets 16:52:52 0° 152° (SSE) 2,531 6.5 -15.5°
